Inquirer Daily News

Weather

Get conditions and forecasts for any City, State, ZIP code or Country:  
Trenton, NJ
on Tuesday, November 20, 2012

Tuesday
Previous Day Next Day
Daily Summary
 ActualAverageRecord
Temperature
Mean Temperature °F 44°F  
Max Temperature 51°F 53°F 76°F (1985)
Min Temperature 35°F 36°F 17°F (1984)
Degree Days
Heating Degree Days 22 21  
Month to date heating degree days 435 354  
Since 1 July heating degree days 742 751  
Cooling Degree Days 0 0  
Month to date cooling degree days 0 0  
Year to date cooling degree days 1234 965  
Moisture
Dew Point 32°F   
Average Humidity 64    
Maximum Humidity 85    
Minimum Humidity 42    
Precipitation
Precipitation 0.00 in 0.10 in 1.90 in (1988)
Month to date precipitation 0.58 2.10  
Year to date precipitation 32.63 41.53  
Wind
Wind Speed 4 mph   
Max Wind Speed 9 mph   
Max Gust Speed 12 mph   
Visibility 10 miles   
Events     

Key: T is trace of precipitation, MM is missing value
Source: NWS Daily Summary
Time(EST)TemperatureDew PointHumidity Pressure Visibility Wind DirectionWind SpeedGust SpeedPrecipitationEvents Conditions
12:53 AM 46.0°F 37.0°F 71% 30.21 in 10.0 miles NE 3.5 mph - N/A   Overcast
1:51 AM 42.8°F 35.6°F 76% 30.21 in 10.0 miles ENE 4.6 mph - N/A   Scattered Clouds
1:53 AM 43.0°F 35.1°F 74% 30.20 in 10.0 miles NE 4.6 mph - N/A   Partly Cloudy
2:53 AM 39.0°F 33.1°F 79% 30.19 in 10.0 miles North 4.6 mph - N/A   Clear
3:53 AM 37.9°F 33.1°F 83% 30.18 in 10.0 miles NNE 4.6 mph - N/A   Clear
4:53 AM 37.0°F 33.1°F 86% 30.18 in 10.0 miles North 6.9 mph - N/A   Clear
5:53 AM 37.0°F 32.0°F 82% 30.18 in 10.0 miles North 4.6 mph - N/A   Clear
6:53 AM 36.0°F 30.9°F 82% 30.18 in 10.0 miles North 4.6 mph - N/A   Clear
7:53 AM 37.9°F 32.0°F 79% 30.18 in 10.0 miles NNE 3.5 mph - N/A   Clear
8:53 AM 42.1°F 34.0°F 73% 30.17 in 10.0 miles ENE 5.8 mph - N/A   Clear
9:53 AM 46.0°F 34.0°F 63% 30.19 in 10.0 miles North 4.6 mph - N/A   Clear
10:53 AM 48.9°F 33.1°F 54% 30.15 in 10.0 miles NE 5.8 mph - N/A   Clear
11:53 AM 50.0°F 32.0°F 50% 30.13 in 10.0 miles East 3.5 mph - N/A   Clear
12:53 PM 50.0°F 30.9°F 48% 30.12 in 10.0 miles Variable 4.6 mph - N/A   Clear
1:53 PM 51.1°F 30.0°F 44% 30.11 in 10.0 miles NNE 3.5 mph - N/A   Clear
2:53 PM 50.0°F 28.9°F 44% 30.10 in 10.0 miles Calm Calm - N/A   Clear
3:53 PM 48.9°F 28.9°F 46% 30.10 in 10.0 miles NE 4.6 mph - N/A   Clear
4:53 PM 46.9°F 30.0°F 52% 30.10 in 10.0 miles NNE 4.6 mph - N/A   Clear
5:53 PM 46.9°F 30.0°F 52% 30.11 in 10.0 miles NNE 3.5 mph - N/A   Clear
6:53 PM 46.0°F 30.0°F 54% 30.12 in 10.0 miles NE 3.5 mph - N/A   Clear
7:53 PM 44.1°F 30.0°F 58% 30.12 in 10.0 miles NNE 3.5 mph - N/A   Clear
8:53 PM 43.0°F 30.0°F 60% 30.12 in 10.0 miles Calm Calm - N/A   Clear
9:53 PM 43.0°F 30.0°F 60% 30.13 in 10.0 miles Calm Calm - N/A   Clear
10:53 PM 43.0°F 30.9°F 62% 30.12 in 10.0 miles NE 3.5 mph - N/A   Clear
11:53 PM 39.9°F 30.9°F 70% 30.14 in 10.0 miles Calm Calm - N/A   Clear
Astronomy
Sunrise:06:51 AM (EST) Moon Rise:12:23 PM (EST)11/20
Sunset:04:38 PM (EST) Moon Set:No Moon Set/
Moon Phase
Nov. 20 Nov. 28 Dec. 06 Dec. 13 Dec. 20

Copyright © 2014 The Weather Underground, Inc.